User: anonymous   Login
Location: Valdosta
(30.8330°N, 83.2790°W)
Time: 11:44:10
(UTC-04:00)
Language:

Uribyol 2 - Orbit

View from above orbital plane
View from above orbital plane
View from above satellite
View from above satellite

Ground track
Ground track

The orbit data is extracted from the following two-line orbital elements,

1 22828U 93061F   15146.86288218  .00000063  00000-0  41216-4 0  9998
2 22828 098.6927 096.2963 0009501 340.1275 019.9536 14.30503205 98370
Epoch (UTC): 26 May 2015 20:42:33
Eccentricity: 0.0009501
inclination: 98.6927°
perigee height: 783 km
apogee height: 797 km
right ascension of ascending node: 96.2963°
argument of perigee: 340.1275°
revolutions per day: 14.30503205
mean anomaly at epoch: 19.9536°
orbit number at epoch: 9837

The dashed part of the orbit path shows where the satellite is in the earth's shadow,  

DLR